User: anonymous   Login
Location: Unspecified
(0.0000°N, 0.0000°E)
Time: 23:51:23
(UTC+00:00)
Language:

ONEWEB-0379 - Orbit

View from above orbital plane
View from above orbital plane
View from above satellite
View from above satellite

Ground track
Ground track

The orbit is defined by the following mean orbital elements,

1 49305U          26145.43085870 +.00000000 +00000-0 -24923-3 0 00001
2 49305  87.8944 294.2459 0001944  95.1890 264.9461 13.14501300    08
Epoch (UTC): 25 May 2026 10:20:26
Eccentricity: 0.0001944
inclination: 87.8944°
perigee height: 1204 km
apogee height: 1207 km
right ascension of ascending node: 294.2459°
argument of perigee: 95.1890°
revolutions per day: 13.14501300
mean anomaly at epoch: 264.9461°

The dashed part of the orbit path shows where the satellite is in the earth's shadow,  

DLR